This demonstration page uses our WeatherBlox Daily Observations layout. Learn more.

Left ArrowRight Arrow

44.8408, -93.29828

Hourly Observations for April 30, 2015

Temp ( °F °C ) Dew Point ( °F °C ) Humidity (%) Winds ( mph kmh ) Pressure ( in mb ) Visibility ( mi km ) Precip ( " mm )
12:53 am 00:53 Mostly Cloudy 55 12.8 33 0.6 44 44 Calm 29.99 1016 10 16 0.00 0.00
1:53 am 01:53 Cloudy 54 12.2 36 2.2 51 51 Calm 29.99 1016 10 16 0.00 0.00
2:53 am 02:53 Cloudy 54 12.2 34 1.1 47 47 NE 6 9 30.00 1016 10 16 0.00 0.00
3:53 am 03:53 Mostly Cloudy 52 11.1 32 0 47 47 E 8 13 30.01 1016 10 16 0.00 0.00
4:53 am 04:53 Partly Cloudy 50 10 31 -0.6 48 48 E 7 11 30.03 1017 10 16 0.00 0.00
5:53 am 05:53 Mostly Clear 48 8.9 29 -1.7 48 48 E 13 20 30.05 1018 10 16 0.00 0.00
6:53 am 06:53 Mostly Sunny 47 8.3 30 -1.1 52 52 E 9 15 30.07 1018 10 16 0.00 0.00
7:53 am 07:53 Mostly Sunny 49 9.4 31 -0.6 50 50 ENE 13 20 30.08 1019 10 16 0.00 0.00
8:53 am 08:53 Mostly Sunny 50 10 30 -1.1 46 46 E 9 15 30.09 1019 10 16 0.00 0.00
9:53 am 09:53 Partly Cloudy 54 12.2 32 0 43 43 E 10 17 30.09 1019 10 16 0.00 0.00
10:53 am 10:53 Partly Cloudy 56 13.3 32 0 40 40 E 7 11 30.09 1019 10 16 0.00 0.00
11:53 am 11:53 Partly Cloudy 59 15 32 0 36 36 E 8 13 30.09 1019 10 16 0.00 0.00
12:53 pm 12:53 Partly Cloudy 62 16.7 32 0 32 32 NE 7 11 30.08 1019 10 16 0.00 0.00
1:53 pm 13:53 Mostly Cloudy 64 17.8 32 0 30 30 NNW 8 13 30.06 1018 10 16 0.00 0.00
2:53 pm 14:53 Mostly Cloudy 64 17.8 32 0 30 30 Calm 30.06 1018 10 16 0.00 0.00
3:53 pm 15:53 Mostly Cloudy 67 19.4 33 0.6 28 28 NNE 6 9 30.04 1017 10 16 0.00 0.00
4:53 pm 16:53 Mostly Cloudy 67 19.4 32 0 27 27 NNE 7 11 30.03 1017 10 16 0.00 0.00
5:53 pm 17:53 Mostly Sunny 66 18.9 32 0 28 28 E 13 20 30.03 1017 10 16 0.00 0.00
6:53 pm 18:53 Mostly Sunny 65 18.3 29 -1.7 26 26 E 8 13 30.02 1017 10 16 0.00 0.00
7:53 pm 19:53 Mostly Sunny 64 17.8 26 -3.3 24 24 ESE 6 9 30.02 1017 10 16 0.00 0.00
8:53 pm 20:53 Clear 61 16.1 26 -3.3 26 26 SSE 6 9 30.04 1017 10 16 0.00 0.00
9:53 pm 21:53 Clear 57 13.9 27 -2.8 32 32 SE 7 11 30.06 1018 10 16 0.00 0.00
10:53 pm 22:53 Clear 55 12.8 28 -2.2 35 35 SE 9 15 30.06 1018 10 16 0.00 0.00
11:53 pm 23:53 Clear 57 13.9 29 -1.7 34 34 SSE 10 17 30.06 1018 10 16 0.00 0.00

Powered by AerisWeather